{"data":{"norad_id":69927,"intl_designator":"2026-156BL","name":"REPLICATOR 2","alt_names":[],"object_type":"PAYLOAD","status":"ACTIVE","operator":null,"country":"GER","launch_date":"2026-07-07","launch_site_code":"AFWTR","launch_vehicle":null,"mission":null,"orbit_class":"UNKNOWN","rcs_meters":null,"size_class":null,"mass_kg":null,"dimensions":null,"purposes":[],"wikipedia_slug":null,"has_3d_model":false,"image_url":null,"decayed_at":null,"tle_current":{"epoch":"2026-09-20T04:11:37.449600Z","epoch_age_seconds":45923,"freshness":"FRESH","line1":"1 69927U 26156BL  26263.17473900  .00000442  00000+0  48783-4 0  9996","line2":"2 69927  97.7452 162.4294 0006790 272.7587  87.2855 14.92304908 10991","mean_motion":14.92304908,"eccentricity":0.000679,"inclination_deg":97.7452,"raan_deg":162.4294,"arg_perigee_deg":272.7587,"mean_anomaly_deg":87.2855,"bstar":4.8783e-5,"rev_number":1099,"period_min":96.495025398657,"perigee_km":586.01877646951,"apogee_km":595.48252589981,"semimajor_km":6968.8876511847,"source":"CELESTRAK","updated_at":"2026-09-20T09:00:25.205873Z"}}}